|
NORAD ID: 28119 Int'l Code: 2003-053E
Perigee: 34,911.2 km
Apogee: 36,808.3 km
Inclination: 8.5 °
Period: 1,439.5 minutes
Semi major axis: 42230 km
Launch date: November 24, 2003
Source: Commonwealth of Independent States (former USSR) (CIS)
Note: This is a ROCKET BODY
Two Line Element Set (TLE):
1 28119U 03053E 13140.18480522 -.00000363 00000-0 10000-3 0 966
2 28119 008.4602 053.4466 0224603 178.6892 181.2499 01.00036786 36935
Source:
NASA's NSSDC Master Catalog entry for SL-12 R/B(2)
|